カタログに戻る

DELTA 1 DEB

LostLEO
NORAD 42086·DEBRIS·🇺🇸 United States

打ち上げ Dec 15, 1968 から Vandenberg Space Force Base

Loading…

次のパス (今後24時間)

TLE

古いSource: Space-Track

元期: Aug 1, 2026, 23:24 UTC

1 42086U 68114N   26213.97561172  .00000130  00000-0  19113-2 0  9993
2 42086 102.1342 132.4875 0350455  13.9843 347.0609 11.93578991218558

AllMySatでDELTA 1 DEBをリアルタイム追跡

Download on the App Store